HI3LT-16 Weather Reports


Display with metric or nautical units.
time (UTC)temp
F
wind
direction
speed
MPH
gust
MPH
rain 1hr
in
rain 24hr
in
rain mn
in
humidity
%
barometer
mb
20260503044504 75 90 8.0 0.0 0.00 0.00 0.00 87 1016.0
20260503043503 75 90 8.0 0.0 0.00 0.00 0.00 86 1016.0
20260503042501 75 90 8.0 0.0 0.00 0.00 0.00 85 1016.0
20260503041500 76 90 8.0 0.0 0.00 0.00 0.00 84 1016.0
20260503040459 77 90 9.0 0.0 0.00 0.00 0.00 82 1016.0
20260503035458 77 90 9.0 0.0 0.00 0.00 0.00 82 1016.0
20260503034456 77 90 9.0 0.0 0.00 0.00 0.00 82 1016.0
20260503033455 77 90 9.0 0.0 0.00 0.00 0.00 82 1016.0
20260503032453 77 90 9.0 0.0 0.00 0.00 0.00 82 1016.0
20260503031452 77 90 9.0 0.0 0.00 0.00 0.00 82 1016.0
20260503030450 77 90 9.0 0.0 0.00 0.00 0.00 82 1016.0
20260503025448 77 80 8.0 0.0 0.00 0.00 0.00 82 1016.0
20260503024446 77 80 8.0 0.0 0.00 0.00 0.00 82 1016.0
20260503023445 77 80 8.0 0.0 0.00 0.00 0.00 82 1016.0
20260503022444 77 80 8.0 0.0 0.00 0.00 0.00 82 1016.0
20260503021442 77 80 8.0 0.0 0.00 0.00 0.00 81 1016.0
20260503020441 78 80 8.0 0.0 0.00 0.00 0.00 80 1016.0
20260503015439 79 80 9.0 0.0 0.00 0.00 0.00 78 1016.0
20260503014438 79 80 9.0 0.0 0.00 0.00 0.00 78 1016.0
20260503013437 79 80 9.0 0.0 0.00 0.00 0.00 78 1016.0
20260503012435 79 80 9.0 0.0 0.00 0.00 0.00 78 1015.0
20260503011433 79 80 9.0 0.0 0.00 0.00 0.00 78 1015.0
20260503010431 81 90 9.0 0.0 0.00 0.00 0.00 74 1015.0
20260503005430 81 90 9.0 0.0 0.00 0.00 0.00 74 1015.0
20260503004429 81 90 9.0 0.0 0.00 0.00 0.00 74 1015.0
20260503003427 81 90 9.0 0.0 0.00 0.00 0.00 74 1015.0
20260503002426 81 90 9.0 0.0 0.00 0.00 0.00 74 1014.0
20260503001425 81 90 9.0 0.0 0.00 0.00 0.00 74 1014.0
20260503000415 83 100 9.0 0.0 0.00 0.00 0.00 74 1014.0
20260502235410 83 100 9.0 0.0 0.00 0.00 0.00 74 1014.0
20260502234409 83 100 9.0 0.0 0.00 0.00 0.00 74 1014.0
20260502233407 83 100 9.0 0.0 0.00 0.00 0.00 74 1014.0
20260502232406 83 100 9.0 0.0 0.00 0.00 0.00 74 1013.0
20260502231405 83 100 9.0 0.0 0.00 0.00 0.00 74 1013.0
20260502230403 83 100 9.0 0.0 0.00 0.00 0.00 74 1013.0
20260502225402 86 100 10.0 0.0 0.00 0.00 0.00 70 1013.0
20260502224401 86 100 10.0 0.0 0.00 0.00 0.00 70 1013.0
20260502223359 86 100 10.0 0.0 0.00 0.00 0.00 70 1013.0
20260502222358 86 100 10.0 0.0 0.00 0.00 0.00 70 1013.0
20260502221357 86 100 10.0 0.0 0.00 0.00 0.00 70 1013.0
20260502220355 86 100 10.0 0.0 0.00 0.00 0.00 70 1013.0
20260502215353 88 100 12.0 0.0 0.00 0.00 0.00 66 1013.0
20260502214352 88 100 12.0 0.0 0.00 0.00 0.00 66 1013.0
20260502213351 87 100 12.0 0.0 0.00 0.00 0.00 65 1013.0
20260502212349 87 100 12.0 0.0 0.00 0.00 0.00 65 1012.0
20260502211348 87 100 12.0 0.0 0.00 0.00 0.00 65 1012.0
20260502210347 87 100 12.0 0.0 0.00 0.00 0.00 64 1012.0
20260502205345 87 90 11.0 0.0 0.00 0.00 0.00 63 1012.0
20260502204344 87 90 11.0 0.0 0.00 0.00 0.00 63 1012.0
20260502203343 87 90 11.0 0.0 0.00 0.00 0.00 63 1012.0
20260502202341 87 90 11.0 0.0 0.00 0.00 0.00 63 1012.0
20260502201339 87 90 11.0 0.0 0.00 0.00 0.00 63 1012.0
20260502200338 87 90 11.0 0.0 0.00 0.00 0.00 63 1012.0
20260502195337 87 90 11.0 0.0 0.00 0.00 0.00 63 1012.0
20260502194335 87 90 11.0 0.0 0.00 0.00 0.00 63 1012.0
20260502193334 87 90 11.0 0.0 0.00 0.00 0.00 63 1012.0
20260502192333 87 90 11.0 0.0 0.00 0.00 0.00 63 1013.0
20260502191331 87 90 11.0 0.0 0.00 0.00 0.00 63 1013.0
20260502190330 87 100 11.0 0.0 0.00 0.00 0.00 63 1013.0
20260502185328 87 100 11.0 0.0 0.00 0.00 0.00 63 1013.0
20260502184327 87 100 11.0 0.0 0.00 0.00 0.00 63 1013.0
20260502183326 87 100 11.0 0.0 0.00 0.00 0.00 63 1013.0
20260502182325 87 100 11.0 0.0 0.00 0.00 0.00 64 1014.0
20260502181323 86 100 11.0 0.0 0.00 0.00 0.00 65 1014.0
20260502180322 85 100 11.0 0.0 0.00 0.00 0.00 67 1014.0
20260502170313 85 100 9.0 0.0 0.00 0.00 0.00 67 1015.0
20260502164310 85 100 9.0 0.0 0.00 0.00 0.00 69 1015.0
20260502163308 85 100 9.0 0.0 0.00 0.00 0.00 70 1015.0
20260502162307 84 100 9.0 0.0 0.00 0.00 0.00 72 1016.0
20260502161306 83 100 9.0 0.0 0.00 0.00 0.00 75 1016.0
20260502160304 82 100 9.0 0.0 0.00 0.00 0.00 80 1016.0
20260502152258 82 100 9.0 0.0 0.00 0.00 0.00 82 1016.0
20260502151257 81 100 9.0 0.0 0.00 0.00 0.00 83 1016.0
20260502150256 80 90 9.0 0.0 0.00 0.00 0.00 85 1016.0
20260502130239 71 90 6.0 0.0 0.00 0.00 0.00 95 1016.0
20260502123235 71 90 6.0 0.0 0.00 0.00 0.00 95 1016.0
20260502122234 71 90 6.0 0.0 0.00 0.00 0.00 95 1015.0
20260502121233 71 90 6.0 0.0 0.00 0.00 0.00 95 1015.0
20260502120231 70 70 5.0 0.0 0.00 0.00 0.00 95 1015.0
20260502115230 70 70 5.0 0.0 0.00 0.00 0.00 95 1015.0
20260502114229 70 70 5.0 0.0 0.00 0.00 0.00 95 1015.0
20260502113227 70 70 5.0 0.0 0.00 0.00 0.00 95 1015.0
20260502112225 70 70 5.0 0.0 0.00 0.00 0.00 95 1015.0
20260502111224 70 70 5.0 0.0 0.00 0.00 0.00 96 1015.0
20260502110222 70 70 5.0 0.0 0.00 0.00 0.00 97 1015.0
20260502105221 70 70 5.0 0.0 0.00 0.00 0.00 99 1015.0
20260502104220 70 70 5.0 0.0 0.00 0.00 0.00 98 1015.0
20260502103218 70 70 5.0 0.0 0.00 0.00 0.00 97 1015.0
20260502102217 71 70 5.0 0.0 0.00 0.00 0.00 96 1015.0
20260502101216 72 70 5.0 0.0 0.00 0.00 0.00 93 1015.0
20260502100214 72 70 5.0 0.0 0.00 0.00 0.00 93 1015.0
20260502091207 72 70 5.0 0.0 0.00 0.00 0.00 93 1014.0
20260502090204 72 70 5.0 0.0 0.00 0.00 0.00 93 1014.0
20260502071148 73 90 5.0 0.0 0.00 0.00 0.00 93 1014.0
20260502070145 74 90 6.0 0.0 0.00 0.00 0.00 93 1014.0
20260502065143 74 90 6.0 0.0 0.00 0.00 0.00 93 1014.0
20260502064142 74 90 6.0 0.0 0.00 0.00 0.00 93 1014.0
20260502063141 74 90 6.0 0.0 0.00 0.00 0.00 93 1014.0
20260502062139 74 90 6.0 0.0 0.00 0.00 0.00 92 1014.0
20260502061138 74 90 6.0 0.0 0.00 0.00 0.00 91 1014.0
20260502060136 75 100 5.0 0.0 0.00 0.00 0.00 89 1014.0
20260502055133 75 100 5.0 0.0 0.00 0.00 0.00 89 1014.0
20260502054130 75 100 5.0 0.0 0.00 0.00 0.00 89 1014.0
20260502053129 75 100 5.0 0.0 0.00 0.00 0.00 89 1014.0
20260502052128 75 100 5.0 0.0 0.00 0.00 0.00 89 1015.0
20260502051126 75 100 5.0 0.0 0.00 0.00 0.00 89 1015.0
20260502050125 75 100 5.0 0.0 0.00 0.00 0.00 89 1015.0
20260502045124 75 100 5.0 0.0 0.00 0.00 0.00 89 1015.0